[[{"header":{"parameterUnit":"m.s-1","parameterCategory":1,"la1":30.2991,"la2":30.254,"lo1":-89.0895,"lo2":-89.0444,"dx":0.0017,"dy":0.0017,"nx":28,"ny":28,"refTime":"2022-11-16T09:00:00:Z","depth":0,"parameterNumber":2,"parameterNumberName":"U-component_of_WINDS"},"data":[0,0,0,0,0,0,0,0,0,0,0,0,0,0,0,0,0,0,0,0,0,0,0,0,0,0,0,0,0,0,0,0,0,0,0,0,0,0,0,0,0,0,0,0,0,0,0,0,0,0,0,0,0,0,0,0,0,0,-0.5277,-0.5278,0,-0.5307,-0.5307,-0.5307,-0.5281,-0.5279,-0.5278,-0.5277,-0.5307,-0.5309,-0.5311,0,0,0,0,0,0,0,0,0,0,0,0,0,-0.5197,-0.5199,-0.5277,-0.5278,-0.5278,-0.5307,-0.5307,-0.5307,-0.5281,-0.5279,-0.5278,-0.5277,-0.5307,-0.5309,-0.5311,0,0,0,0,0,0,0,0,0,0,0,0,0,-0.523,-0.5199,-0.5277,-0.5268,-0.5268,-0.5307,-0.5307,-0.5308,-0.5281,-0.5279,-0.5278,-0.5276,-0.5306,-0.5309,-0.5311,-0.5361,0,0,-0.532,-0.5321,0,0,0,0,0,0,0,0,-0.5228,-0.5233,-0.5269,-0.5269,-0.5268,-0.5288,-0.529,-0.5325,-0.5281,-0.5276,-0.5277,-0.5275,-0.5302,-0.5305,-0.5314,-0.5362,-0.5363,-0.532,-0.5321,-0.5323,-0.5323,0,0,0,0,0,0,0,-0.5226,-0.5231,-0.5289,-0.527,-0.5269,-0.5262,-0.5265,-0.5296,-0.5298,-0.5276,-0.5274,-0.5278,-0.5302,-0.5312,-0.5315,-0.5364,-0.532,-0.5322,-0.5324,-0.5325,-0.5452,-0.5454,0,0,0,0,0,0,-0.5224,-0.5229,-0.5288,-0.529,-0.5244,-0.5265,-0.5268,-0.5284,-0.5297,-0.5298,-0.528,-0.5277,-0.5308,-0.5312,-0.5316,-0.5374,-0.5323,-0.5325,-0.5327,-0.5451,-0.5453,-0.5455,0,0,0,0,0,0,-0.5223,-0.523,-0.5287,-0.5259,-0.5266,-0.5268,-0.5286,-0.5285,-0.5295,-0.53,-0.53,-0.529,-0.5307,-0.5312,-0.5349,-0.5375,-0.5326,-0.5329,-0.5449,-0.5451,-0.5454,-0.5492,0,0,0,0,0,0,-0.5221,-0.5229,-0.5249,-0.526,-0.5267,-0.5321,-0.5287,-0.5287,-0.53,-0.5296,-0.5309,-0.531,-0.5306,-0.5346,-0.5352,-0.5378,-0.5331,-0.5446,-0.545,-0.5453,-0.5488,-0.5495,-0.5501,0,0,0,0,0,-0.5218,-0.5258,-0.525,-0.5257,-0.5291,-0.5322,-0.5326,-0.5321,-0.5302,-0.5321,-0.5324,-0.531,-0.5371,-0.535,-0.5357,-0.5384,-0.5445,-0.5449,-0.5453,-0.5485,-0.5494,-0.5501,0,0,0,0,0,0,-0.525,-0.526,-0.525,-0.5295,-0.5308,-0.5317,-0.5341,-0.533,-0.5349,-0.5345,-0.5337,-0.534,-0.538,-0.5385,-0.5362,-0.5432,-0.5405,-0.541,-0.5427,-0.5435,-0.5442,-0.544,-0.5333,0,0,0,0,0,-0.5262,-0.5287,-0.5293,-0.5333,-0.5339,-0.5339,-0.5353,-0.5347,-0.536,-0.5365,-0.5371,-0.5384,-0.5406,-0.5421,-0.5441,-0.5488,-0.5491,-0.551,-0.5517,-0.5522,-0.5527,-0.5552,-0.5561,-0.5468,-0.5468,-0.5468,0,0,-0.5288,-0.5296,-0.5312,-0.5339,-0.5349,-0.5374,-0.5344,-0.5372,-0.5391,-0.5369,-0.5405,-0.541,-0.5424,-0.5466,-0.5485,-0.5472,-0.5553,-0.5527,-0.5531,-0.5534,-0.5557,-0.5566,-0.5574,-0.547,-0.547,-0.547,0,0,-0.5348,-0.5357,-0.539,-0.54,-0.5414,-0.5414,-0.5422,-0.5433,-0.5435,-0.5471,-0.5455,-0.5476,-0.5515,-0.5525,-0.5535,-0.5598,-0.5585,-0.5604,-0.5639,-0.5664,-0.5671,-0.5677,-0.57,-0.5708,-0.5609,-0.561,-0.561,0,-0.5379,-0.5416,-0.5409,-0.5438,-0.545,-0.5432,-0.5465,-0.5475,-0.5495,-0.5504,-0.5488,-0.5535,-0.5543,-0.5588,-0.5603,-0.5612,-0.562,-0.5604,-0.567,-0.5677,-0.5683,-0.5704,-0.5712,-0.5612,-0.5612,-0.5611,-0.5611,0,-0.5453,-0.5479,-0.5504,-0.5524,-0.5539,-0.557,-0.5567,-0.5583,-0.5576,-0.5577,-0.5613,-0.5621,-0.5643,-0.5653,-0.5647,-0.5697,-0.5688,-0.5672,-0.5645,-0.5694,-0.5714,-0.5722,-0.5615,-0.5614,-0.5614,-0.5613,0,0,-0.5536,-0.555,-0.556,-0.5568,-0.5582,-0.5602,-0.5631,-0.5653,-0.5666,-0.568,-0.5705,-0.5737,-0.5722,-0.5734,-0.5728,-0.5749,-0.5798,-0.573,-0.573,-0.5743,-0.5853,-0.5866,-0.5875,-0.5789,-0.579,-0.5792,-0.5852,0,-0.5596,-0.5649,-0.5642,-0.5692,-0.5716,-0.5698,-0.5724,-0.5735,-0.5736,-0.5756,-0.5757,-0.578,-0.5758,-0.5765,-0.5785,-0.5788,-0.582,-0.5783,-0.5812,-0.5813,-0.581,-0.5886,-0.5899,-0.5956,-0.586,-0.5861,-0.5862,0,-0.5675,-0.5692,-0.5744,-0.5753,-0.5763,-0.5786,-0.5805,-0.5824,-0.5836,-0.5835,-0.5847,-0.5838,-0.5867,-0.5838,-0.5878,-0.5854,-0.5865,-0.5867,-0.5869,-0.5872,-0.5841,-0.5891,-0.5974,-0.5982,-0.5874,-0.5873,-0.5872,0,-0.573,-0.5766,-0.5801,-0.5809,-0.5821,-0.5838,-0.5843,-0.5853,-0.5866,-0.5882,-0.589,-0.5909,-0.592,-0.5934,-0.593,-0.5909,-0.5971,-0.5942,-0.5971,-0.5971,-0.5985,-0.5985,-0.6071,-0.5992,-0.5991,-0.5991,-0.5991,0,-0.5799,-0.5832,-0.5826,-0.5848,-0.5884,-0.5876,-0.5912,-0.5915,-0.5924,-0.5946,-0.5931,-0.5952,-0.5944,-0.5964,-0.596,-0.5994,-0.5999,-0.5999,-0.5998,-0.6001,-0.6001,-0.6008,-0.6005,-0.5994,-0.5993,-0.5993,-0.5992,0,-0.5867,-0.5865,-0.5903,-0.591,-0.5913,-0.5939,-0.5945,-0.5966,-0.5965,-0.5993,-0.5999,-0.5999,-0.6022,-0.6018,-0.6044,-0.6041,-0.6083,-0.6077,-0.6079,-0.6078,-0.6107,-0.6105,-0.6202,-0.6215,-0.6127,-0.6128,-0.6128,0,-0.5912,-0.5937,-0.5947,-0.596,-0.5967,-0.599,-0.6002,-0.5995,-0.6009,-0.6023,-0.6042,-0.6063,-0.608,-0.6118,-0.6119,-0.6138,-0.6133,-0.6166,-0.6136,-0.6138,-0.6134,-0.6132,-0.6135,-0.6172,-0.6173,-0.6174,-0.6174,0,-0.5991,-0.5989,-0.6008,-0.6027,-0.6042,-0.6057,-0.607,-0.6082,-0.6075,-0.6091,-0.6115,-0.6128,-0.6153,-0.6175,-0.6193,-0.6198,-0.6185,-0.6184,-0.6191,-0.6195,-0.6196,-0.6196,-0.6096,-0.6182,-0.6181,-0.618,-0.618,-0.618,-0.6049,-0.607,-0.608,-0.6102,-0.6111,-0.6123,-0.6143,-0.6144,-0.6164,-0.6184,-0.6178,-0.6204,-0.6214,-0.6237,-0.6244,-0.6264,-0.6252,-0.6263,-0.6266,-0.6269,-0.6272,-0.6192,-0.6267,-0.6267,-0.6267,-0.6266,-0.6266,0,-0.6128,-0.6133,-0.6154,-0.6172,-0.6189,-0.6175,-0.6188,-0.6203,-0.6227,-0.6237,-0.6254,-0.628,-0.63,-0.6303,-0.6322,-0.6338,-0.6332,-0.6343,-0.6342,-0.6344,-0.6282,-0.6274,-0.6347,-0.6347,-0.6347,-0.6347,-0.6347,-0.6347,-0.6171,-0.6206,-0.6204,-0.6243,-0.6248,-0.6273,-0.6282,-0.6293,-0.6301,-0.6331,-0.6348,-0.635,-0.6357,-0.6376,-0.6394,-0.6394,-0.6402,-0.6415,-0.6413,-0.6356,-0.6348,-0.634,-0.6332,-0.6417,-0.6417,-0.6473,-0.6473,-0.6474]},{"header":{"parameterUnit":"m.s-1","parameterCategory":1,"la1":30.2991,"la2":30.254,"lo1":-89.0895,"lo2":-89.0444,"dx":0.0017,"dy":0.0017,"nx":28,"ny":28,"refTime":"2022-11-16T09:00:00:Z","depth":0,"parameterNumber":3,"parameterNumberName":"V-component_of_WINDS"},"data":[0,0,0,0,0,0,0,0,0,0,0,0,0,0,0,0,0,0,0,0,0,0,0,0,0,0,0,0,0,0,0,0,0,0,0,0,0,0,0,0,0,0,0,0,0,0,0,0,0,0,0,0,0,0,0,0,0,0,-7.6609,-7.6611,0,-7.6753,-7.6754,-7.6756,-7.6672,-7.6668,-7.6664,-7.666,-7.68,-7.6807,-7.6814,0,0,0,0,0,0,0,0,0,0,0,0,0,-7.6256,-7.6263,-7.6609,-7.6611,-7.6613,-7.6752,-7.6754,-7.6756,-7.6673,-7.6668,-7.6663,-7.6658,-7.6797,-7.6806,-7.6815,0,0,0,0,0,0,0,0,0,0,0,0,0,-7.6405,-7.6265,-7.6609,-7.6588,-7.6588,-7.6752,-7.6754,-7.6757,-7.6674,-7.6668,-7.6662,-7.6656,-7.6794,-7.6805,-7.6816,-7.7006,0,0,-7.685,-7.6855,0,0,0,0,0,0,0,0,-7.6397,-7.6418,-7.659,-7.659,-7.659,-7.6688,-7.6681,-7.684,-7.6675,-7.6641,-7.666,-7.6653,-7.6767,-7.678,-7.682,-7.7013,-7.7019,-7.6851,-7.6858,-7.6863,-7.6866,0,0,0,0,0,0,0,-7.6387,-7.6412,-7.6666,-7.6592,-7.6592,-7.6569,-7.6584,-7.671,-7.6736,-7.6643,-7.6638,-7.6656,-7.6766,-7.6809,-7.6823,-7.7021,-7.6851,-7.6861,-7.6868,-7.6872,-7.7375,-7.7382,0,0,0,0,0,0,-7.6379,-7.6404,-7.6661,-7.667,-7.6477,-7.6581,-7.6597,-7.6663,-7.6734,-7.674,-7.6661,-7.6652,-7.6793,-7.681,-7.6827,-7.7054,-7.6863,-7.6873,-7.688,-7.7369,-7.7377,-7.7384,0,0,0,0,0,0,-7.6372,-7.6403,-7.6655,-7.6535,-7.6566,-7.6593,-7.6668,-7.6669,-7.6712,-7.6748,-7.6751,-7.6702,-7.6789,-7.6811,-7.6963,-7.7058,-7.6878,-7.6889,-7.7361,-7.7371,-7.738,-7.751,0,0,0,0,0,0,-7.6362,-7.6401,-7.6475,-7.6538,-7.6573,-7.6791,-7.6674,-7.6676,-7.6733,-7.6722,-7.6787,-7.6792,-7.6786,-7.6946,-7.6974,-7.707,-7.6897,-7.7352,-7.7366,-7.7377,-7.7497,-7.7523,-7.7545,0,0,0,0,0,-7.635,-7.6505,-7.6479,-7.6511,-7.6667,-7.6797,-7.6817,-7.6809,-7.6741,-7.6815,-7.6837,-7.6789,-7.7043,-7.6963,-7.6993,-7.7094,-7.7346,-7.7362,-7.7376,-7.7487,-7.7518,-7.7545,0,0,0,0,0,0,-7.645,-7.6512,-7.6485,-7.6666,-7.6727,-7.6783,-7.6876,-7.6843,-7.6923,-7.6909,-7.6894,-7.6909,-7.7067,-7.7095,-7.7005,-7.7281,-7.7184,-7.7205,-7.7257,-7.7287,-7.7311,-7.7301,-7.6907,0,0,0,0,0,-7.6494,-7.6597,-7.6644,-7.6799,-7.6831,-7.6849,-7.6905,-7.6894,-7.6956,-7.6981,-7.7014,-7.7074,-7.7167,-7.7228,-7.7316,-7.7501,-7.7512,-7.7585,-7.7608,-7.7628,-7.7647,-7.7745,-7.7777,-7.7433,-7.7433,-7.7433,0,0,-7.6584,-7.6631,-7.6696,-7.682,-7.6867,-7.6971,-7.6871,-7.6986,-7.7063,-7.6997,-7.7143,-7.717,-7.7235,-7.7404,-7.748,-7.7432,-7.7745,-7.7647,-7.7662,-7.7671,-7.7764,-7.7797,-7.7825,-7.7443,-7.7441,-7.744,0,0,-7.6802,-7.6849,-7.6982,-7.7031,-7.7103,-7.7113,-7.7145,-7.7207,-7.7223,-7.7369,-7.7322,-7.7411,-7.7572,-7.762,-7.7666,-7.7902,-7.786,-7.793,-7.8055,-7.8152,-7.8179,-7.8203,-7.8286,-7.8316,-7.7949,-7.7949,-7.7949,0,-7.6905,-7.7064,-7.7054,-7.7174,-7.7229,-7.7177,-7.731,-7.7357,-7.7453,-7.7491,-7.7437,-7.7637,-7.7677,-7.7856,-7.7914,-7.7953,-7.7987,-7.7923,-7.8176,-7.82,-7.8222,-7.8301,-7.8333,-7.7957,-7.7956,-7.7956,-7.7955,0,-7.7186,-7.7296,-7.7395,-7.7492,-7.7557,-7.7683,-7.7691,-7.7758,-7.7741,-7.7756,-7.7905,-7.7951,-7.8047,-7.8088,-7.8072,-7.8265,-7.8233,-7.8178,-7.808,-7.8263,-7.8337,-7.8368,-7.7969,-7.7966,-7.7964,-7.7962,0,0,-7.7472,-7.7562,-7.7599,-7.7641,-7.7717,-7.78,-7.7922,-7.8018,-7.8076,-7.8143,-7.8244,-7.8381,-7.833,-7.8382,-7.837,-7.8455,-7.8638,-7.8389,-7.839,-7.8433,-7.8851,-7.8893,-7.8928,-7.8611,-7.8616,-7.8621,-7.8846,0,-7.7695,-7.7912,-7.7907,-7.8107,-7.8208,-7.8159,-7.8265,-7.8321,-7.8338,-7.8424,-7.8441,-7.8539,-7.8465,-7.8496,-7.8577,-7.8598,-7.8721,-7.8582,-7.8702,-7.8707,-7.8688,-7.8967,-7.9011,-7.9221,-7.8875,-7.888,-7.8883,0,-7.7984,-7.8064,-7.8275,-7.8335,-7.8377,-7.8473,-7.856,-7.8643,-7.8704,-7.8711,-7.8769,-7.8744,-7.8865,-7.8764,-7.8929,-7.8835,-7.8883,-7.8901,-7.8908,-7.8919,-7.8806,-7.8985,-7.9288,-7.932,-7.8929,-7.8925,-7.8922,0,-7.8172,-7.8331,-7.8478,-7.8516,-7.859,-7.8658,-7.8691,-7.8747,-7.8805,-7.8879,-7.8916,-7.9003,-7.9051,-7.9117,-7.9115,-7.9042,-7.9283,-7.9181,-7.929,-7.929,-7.9343,-7.9339,-7.9658,-7.9374,-7.9374,-7.9373,-7.9373,0,-7.8422,-7.8552,-7.8563,-7.8654,-7.8798,-7.879,-7.8932,-7.8958,-7.9008,-7.91,-7.9062,-7.9149,-7.9141,-7.9228,-7.9226,-7.9363,-7.9385,-7.9391,-7.939,-7.9395,-7.9395,-7.9427,-7.9412,-7.9382,-7.938,-7.9378,-7.9377,0,-7.8656,-7.8669,-7.8825,-7.8882,-7.8899,-7.9003,-7.905,-7.9135,-7.9148,-7.9266,-7.9292,-7.9313,-7.9413,-7.9418,-7.9533,-7.9531,-7.9698,-7.9679,-7.9678,-7.9675,-7.9782,-7.9772,-8.0133,-8.0179,-7.9866,-7.9869,-7.9871,0,-7.8814,-7.8914,-7.8982,-7.9043,-7.9081,-7.9178,-7.9237,-7.9232,-7.9294,-7.9371,-7.9446,-7.9543,-7.9621,-7.9783,-7.9806,-7.9893,-7.9877,-7.9997,-7.9889,-7.9892,-7.9878,-7.9872,-7.9881,-8.0018,-8.0021,-8.0024,-8.0027,0,-7.9094,-7.9096,-7.9184,-7.9274,-7.9346,-7.9416,-7.9481,-7.9532,-7.9534,-7.9605,-7.9709,-7.9769,-7.9887,-7.9984,-8.0068,-8.0099,-8.0063,-8.006,-8.009,-8.0097,-8.0092,-8.0095,-7.9735,-8.0052,-8.0049,-8.0048,-8.0046,-8.0045,-7.9295,-7.9382,-7.9443,-7.9542,-7.9591,-7.9652,-7.9735,-7.9759,-7.9846,-7.9943,-7.9933,-8.0048,-8.0105,-8.0215,-8.0253,-8.034,-8.0299,-8.0342,-8.0353,-8.0363,-8.0375,-8.0078,-8.0356,-8.0355,-8.0354,-8.0354,-8.0353,0,-7.9573,-7.961,-7.9702,-7.9795,-7.9872,-7.9833,-7.9903,-7.9969,-8.0072,-8.0129,-8.0206,-8.0324,-8.0417,-8.0448,-8.0537,-8.0601,-8.0587,-8.0625,-8.062,-8.0628,-8.0407,-8.0373,-8.0635,-8.0635,-8.0635,-8.0635,-8.0635,-8.0635,-7.9727,-7.9871,-7.9879,-8.0046,-8.0081,-8.0195,-8.0238,-8.0293,-8.0339,-8.0474,-8.0552,-8.0572,-8.0618,-8.071,-8.0793,-8.0799,-8.0833,-8.0879,-8.0878,-8.0671,-8.0643,-8.0616,-8.0584,-8.0886,-8.0886,-8.1091,-8.1093,-8.1094]}]]